Location: Unspecified
(0.0000°N, 0.0000°E)
Time: 08:36:01
(UTC+00:00)

ISS - Pass Details

Date: 17 May 2021
Orbit: 417 x 422 km, 51.6° (Epoch: 16 June)

Event Time Altitude Azimuth Distance (km) Brightness Sun altitude
Rises 05:02:22 0° 333° (NNW) 2,354 0.0 -12.7°
Reaches altitude 10° 05:04:30 10° 339° (NNW) 1,493 -1.0 -12.2°
Maximum altitude 05:07:46 49° 55° (NE) 551 -2.7 -11.5°
Drops below altitude 10° 05:11:02 10° 131° (SE) 1,500 -0.5 -10.7°
Sets 05:13:10 0° 136° (SE) 2,365 0.4 -10.2°
